Year,Month,Day,Hour,Minute,Value (Times are PST for windgust in km/hr)
2023,12,09,00,00,17.70
2023,12,09,00,01,20.90
2023,12,09,00,02,24.20
2023,12,09,00,03,20.90
2023,12,09,00,04,20.90
2023,12,09,00,05,20.90
2023,12,09,00,06,19.30
2023,12,09,00,07,19.30
2023,12,09,00,08,19.30
2023,12,09,00,09,19.30
2023,12,09,00,10,17.70
2023,12,09,00,11,16.10
2023,12,09,00,12,17.70
2023,12,09,00,13,19.30
2023,12,09,00,14,16.10
2023,12,09,00,15,19.30
2023,12,09,00,16,19.30
2023,12,09,00,17,20.90
2023,12,09,00,18,19.30
2023,12,09,00,19,19.30
2023,12,09,00,20,17.70
2023,12,09,00,21,19.30
2023,12,09,00,22,20.90
2023,12,09,00,23,20.90
2023,12,09,00,24,19.30
2023,12,09,00,25,22.50
2023,12,09,00,26,20.90
2023,12,09,00,27,20.90
2023,12,09,00,28,19.30
2023,12,09,00,29,20.90
2023,12,09,00,30,19.30
2023,12,09,00,31,20.90
2023,12,09,00,32,22.50
2023,12,09,00,33,19.30
2023,12,09,00,34,20.90
2023,12,09,00,35,20.90
2023,12,09,00,36,20.90
2023,12,09,00,37,20.90
2023,12,09,00,38,19.30
2023,12,09,00,39,22.50
2023,12,09,00,40,19.30
2023,12,09,00,41,22.50
2023,12,09,00,42,22.50
2023,12,09,00,43,24.20
2023,12,09,00,44,22.50
2023,12,09,00,45,22.50
2023,12,09,00,46,20.90
2023,12,09,00,47,22.50
2023,12,09,00,48,22.50
2023,12,09,00,49,20.90
2023,12,09,00,50,22.50
2023,12,09,00,51,20.90
2023,12,09,00,52,20.90
2023,12,09,00,53,20.90
2023,12,09,00,54,22.50
2023,12,09,00,55,20.90
2023,12,09,00,56,19.30
2023,12,09,00,57,20.90
2023,12,09,00,58,22.50
2023,12,09,00,59,20.90
2023,12,09,01,00,19.30
2023,12,09,01,01,19.30
2023,12,09,01,02,24.20
2023,12,09,01,03,19.30
2023,12,09,01,04,20.90
2023,12,09,01,05,24.20
2023,12,09,01,06,22.50
2023,12,09,01,07,20.90
2023,12,09,01,08,19.30
2023,12,09,01,09,20.90
2023,12,09,01,10,20.90
2023,12,09,01,11,20.90
2023,12,09,01,12,22.50
2023,12,09,01,13,22.50
2023,12,09,01,14,20.90
2023,12,09,01,15,19.30
2023,12,09,01,16,22.50
2023,12,09,01,17,22.50
2023,12,09,01,18,20.90
2023,12,09,01,19,22.50
2023,12,09,01,20,25.70
2023,12,09,01,21,20.90
2023,12,09,01,22,20.90
2023,12,09,01,23,19.30
2023,12,09,01,24,20.90
2023,12,09,01,25,20.90
2023,12,09,01,26,20.90
2023,12,09,01,27,19.30
2023,12,09,01,28,20.90
2023,12,09,01,29,19.30
2023,12,09,01,30,20.90
2023,12,09,01,31,20.90
2023,12,09,01,32,20.90
2023,12,09,01,33,20.90
2023,12,09,01,34,17.70
2023,12,09,01,35,19.30
2023,12,09,01,36,19.30
2023,12,09,01,37,20.90
2023,12,09,01,38,22.50
2023,12,09,01,39,17.70
2023,12,09,01,40,19.30
2023,12,09,01,41,19.30
2023,12,09,01,42,22.50
2023,12,09,01,43,20.90
2023,12,09,01,44,20.90
2023,12,09,01,45,20.90
2023,12,09,01,46,20.90
2023,12,09,01,47,20.90
2023,12,09,01,48,20.90
2023,12,09,01,49,20.90
2023,12,09,01,50,19.30
2023,12,09,01,51,19.30
2023,12,09,01,52,19.30
2023,12,09,01,53,19.30
2023,12,09,01,54,19.30
2023,12,09,01,55,20.90
2023,12,09,01,56,19.30
2023,12,09,01,57,19.30
2023,12,09,01,58,16.10
2023,12,09,01,59,19.30
2023,12,09,02,00,19.30
2023,12,09,02,01,16.10
2023,12,09,02,02,17.70
2023,12,09,02,03,16.10
2023,12,09,02,04,16.10
2023,12,09,02,05,17.70
2023,12,09,02,06,17.70
2023,12,09,02,07,16.10
2023,12,09,02,08,16.10
2023,12,09,02,09,17.70
2023,12,09,02,10,16.10
2023,12,09,02,11,14.50
2023,12,09,02,12,16.10
2023,12,09,02,13,16.10
2023,12,09,02,14,12.90
2023,12,09,02,15,12.90
2023,12,09,02,16,12.90
2023,12,09,02,17,12.90
2023,12,09,02,18,16.10
2023,12,09,02,19,14.50
2023,12,09,02,20,14.50
2023,12,09,02,21,14.50
2023,12,09,02,22,12.90
2023,12,09,02,23,11.30
2023,12,09,02,24,12.90
2023,12,09,02,25,12.90
2023,12,09,02,26,16.10
2023,12,09,02,27,14.50
2023,12,09,02,28,11.30
2023,12,09,02,29,9.60
2023,12,09,02,30,14.50
2023,12,09,02,31,16.10
2023,12,09,02,32,14.50
2023,12,09,02,33,12.90
2023,12,09,02,34,14.50
2023,12,09,02,35,16.10
2023,12,09,02,36,12.90
2023,12,09,02,37,14.50
2023,12,09,02,38,16.10
2023,12,09,02,39,12.90
2023,12,09,02,40,12.90
2023,12,09,02,41,12.90
2023,12,09,02,42,16.10
2023,12,09,02,43,14.50
2023,12,09,02,44,16.10
2023,12,09,02,45,12.90
2023,12,09,02,46,14.50
2023,12,09,02,47,12.90
2023,12,09,02,48,11.30
2023,12,09,02,49,12.90
2023,12,09,02,50,12.90
2023,12,09,02,51,12.90
2023,12,09,02,52,14.50
2023,12,09,02,53,16.10
2023,12,09,02,54,14.50
2023,12,09,02,55,14.50
2023,12,09,02,56,9.60
2023,12,09,02,57,14.50
2023,12,09,02,58,14.50
2023,12,09,02,59,12.90
2023,12,09,03,00,12.90
2023,12,09,03,01,14.50
2023,12,09,03,02,16.10
2023,12,09,03,03,16.10
2023,12,09,03,04,14.50
2023,12,09,03,05,14.50
2023,12,09,03,06,14.50
2023,12,09,03,07,12.90
2023,12,09,03,08,14.50
2023,12,09,03,09,17.70
2023,12,09,03,10,14.50
2023,12,09,03,11,12.90
2023,12,09,03,12,14.50
2023,12,09,03,13,14.50
2023,12,09,03,14,14.50
2023,12,09,03,15,16.10
2023,12,09,03,16,12.90
2023,12,09,03,17,16.10
2023,12,09,03,18,12.90
2023,12,09,03,19,16.10
2023,12,09,03,20,14.50
2023,12,09,03,21,14.50
2023,12,09,03,22,16.10
2023,12,09,03,23,16.10
2023,12,09,03,24,16.10
2023,12,09,03,25,17.70
2023,12,09,03,26,16.10
2023,12,09,03,27,16.10
2023,12,09,03,28,14.50
2023,12,09,03,29,14.50
2023,12,09,03,30,14.50
2023,12,09,03,31,16.10
2023,12,09,03,32,14.50
2023,12,09,03,33,19.30
2023,12,09,03,34,16.10
2023,12,09,03,35,16.10
2023,12,09,03,36,16.10
2023,12,09,03,37,17.70
2023,12,09,03,38,17.70
2023,12,09,03,39,17.70
2023,12,09,03,40,17.70
2023,12,09,03,41,16.10
2023,12,09,03,42,12.90
2023,12,09,03,43,14.50
2023,12,09,03,44,14.50
2023,12,09,03,45,16.10
2023,12,09,03,46,16.10
2023,12,09,03,47,14.50
2023,12,09,03,48,19.30
2023,12,09,03,49,17.70
2023,12,09,03,50,17.70
2023,12,09,03,51,17.70
2023,12,09,03,52,17.70
2023,12,09,03,53,17.70
2023,12,09,03,54,16.10
2023,12,09,03,55,16.10
2023,12,09,03,56,19.30
2023,12,09,03,57,19.30
2023,12,09,03,58,19.30
2023,12,09,03,59,17.70
2023,12,09,04,00,20.90
2023,12,09,04,01,19.30
2023,12,09,04,02,17.70
2023,12,09,04,03,17.70
2023,12,09,04,04,17.70
2023,12,09,04,05,14.50
2023,12,09,04,06,14.50
2023,12,09,04,07,19.30
2023,12,09,04,08,16.10
2023,12,09,04,09,16.10
2023,12,09,04,10,19.30
2023,12,09,04,11,16.10
2023,12,09,04,12,19.30
2023,12,09,04,13,17.70
2023,12,09,04,14,14.50
2023,12,09,04,15,16.10
2023,12,09,04,16,16.10
2023,12,09,04,17,19.30
2023,12,09,04,18,20.90
2023,12,09,04,19,16.10
2023,12,09,04,20,19.30
2023,12,09,04,21,17.70
2023,12,09,04,22,19.30
2023,12,09,04,23,16.10
2023,12,09,04,24,17.70
2023,12,09,04,25,14.50
2023,12,09,04,26,17.70
2023,12,09,04,27,16.10
2023,12,09,04,28,17.70
2023,12,09,04,29,17.70
2023,12,09,04,30,19.30
2023,12,09,04,31,19.30
2023,12,09,04,32,24.20
2023,12,09,04,33,22.50
2023,12,09,04,34,20.90
2023,12,09,04,35,20.90
2023,12,09,04,36,25.70
2023,12,09,04,37,22.50
2023,12,09,04,38,25.70
2023,12,09,04,39,22.50
2023,12,09,04,40,19.30
2023,12,09,04,41,19.30
2023,12,09,04,42,20.90
2023,12,09,04,43,17.70
2023,12,09,04,44,14.50
2023,12,09,04,45,22.50
2023,12,09,04,46,24.20
2023,12,09,04,47,20.90
2023,12,09,04,48,22.50
2023,12,09,04,49,24.20
2023,12,09,04,50,22.50
2023,12,09,04,51,24.20
2023,12,09,04,52,27.40
2023,12,09,04,53,24.20
2023,12,09,04,54,20.90
2023,12,09,04,55,20.90
2023,12,09,04,56,22.50
2023,12,09,04,57,24.20
2023,12,09,04,58,24.20
2023,12,09,04,59,22.50
2023,12,09,05,00,20.90
2023,12,09,05,01,24.20
2023,12,09,05,02,24.20
2023,12,09,05,03,22.50
2023,12,09,05,04,22.50
2023,12,09,05,05,19.30
2023,12,09,05,06,19.30
2023,12,09,05,07,19.30
2023,12,09,05,08,19.30
2023,12,09,05,09,19.30
2023,12,09,05,10,19.30
2023,12,09,05,11,19.30
2023,12,09,05,12,24.20
2023,12,09,05,13,24.20
2023,12,09,05,14,24.20
2023,12,09,05,15,19.30
2023,12,09,05,16,22.50
2023,12,09,05,17,20.90
2023,12,09,05,18,20.90
2023,12,09,05,19,20.90
2023,12,09,05,20,17.70
2023,12,09,05,21,16.10
2023,12,09,05,22,19.30
2023,12,09,05,23,22.50
2023,12,09,05,24,25.70
2023,12,09,05,25,20.90
2023,12,09,05,26,19.30
2023,12,09,05,27,19.30
2023,12,09,05,28,17.70
2023,12,09,05,29,19.30
2023,12,09,05,30,20.90
2023,12,09,05,31,19.30
2023,12,09,05,32,17.70
2023,12,09,05,33,16.10
2023,12,09,05,34,22.50
2023,12,09,05,35,19.30
2023,12,09,05,36,20.90
2023,12,09,05,37,19.30
2023,12,09,05,38,16.10
2023,12,09,05,39,17.70
2023,12,09,05,40,19.30
2023,12,09,05,41,19.30
2023,12,09,05,42,20.90
2023,12,09,05,43,17.70
2023,12,09,05,44,19.30
2023,12,09,05,45,19.30
2023,12,09,05,46,22.50
2023,12,09,05,47,22.50
2023,12,09,05,48,22.50
2023,12,09,05,49,16.10
2023,12,09,05,50,17.70
2023,12,09,05,51,19.30
2023,12,09,05,52,22.50
2023,12,09,05,53,20.90
2023,12,09,05,54,19.30
2023,12,09,05,55,19.30
2023,12,09,05,56,17.70
2023,12,09,05,57,19.30
2023,12,09,05,58,20.90
2023,12,09,05,59,22.50
2023,12,09,06,00,22.50
2023,12,09,06,01,24.20
2023,12,09,06,02,20.90
2023,12,09,06,03,22.50
2023,12,09,06,04,19.30
2023,12,09,06,05,20.90
2023,12,09,06,06,20.90
2023,12,09,06,07,20.90
2023,12,09,06,08,20.90
2023,12,09,06,09,19.30
2023,12,09,06,10,17.70
2023,12,09,06,11,17.70
2023,12,09,06,12,19.30
2023,12,09,06,13,19.30
2023,12,09,06,14,19.30
2023,12,09,06,15,20.90
2023,12,09,06,16,27.40
2023,12,09,06,17,27.40
2023,12,09,06,18,24.20
2023,12,09,06,19,20.90
2023,12,09,06,20,20.90
2023,12,09,06,21,17.70
2023,12,09,06,22,20.90
2023,12,09,06,23,20.90
2023,12,09,06,24,19.30
2023,12,09,06,25,19.30
2023,12,09,06,26,16.10
2023,12,09,06,27,17.70
2023,12,09,06,28,22.50
2023,12,09,06,29,17.70
2023,12,09,06,30,20.90
2023,12,09,06,31,17.70
2023,12,09,06,32,20.90
2023,12,09,06,33,22.50
2023,12,09,06,34,17.70
2023,12,09,06,35,17.70
2023,12,09,06,36,17.70
2023,12,09,06,37,19.30
2023,12,09,06,38,17.70
2023,12,09,06,39,16.10
2023,12,09,06,40,12.90
2023,12,09,06,41,16.10
2023,12,09,06,42,14.50
2023,12,09,06,43,12.90
2023,12,09,06,44,16.10
2023,12,09,06,45,14.50
2023,12,09,06,46,14.50
2023,12,09,06,47,16.10
2023,12,09,06,48,17.70
2023,12,09,06,49,17.70
2023,12,09,06,50,16.10
2023,12,09,06,51,16.10
2023,12,09,06,52,12.90
2023,12,09,06,53,12.90
2023,12,09,06,54,14.50
2023,12,09,06,55,14.50
2023,12,09,06,56,17.70
2023,12,09,06,57,19.30
2023,12,09,06,58,17.70
2023,12,09,06,59,19.30
2023,12,09,07,00,17.70
2023,12,09,07,01,17.70
2023,12,09,07,02,16.10
2023,12,09,07,03,16.10
2023,12,09,07,04,16.10
2023,12,09,07,05,16.10
2023,12,09,07,06,14.50
2023,12,09,07,07,14.50
2023,12,09,07,08,20.90
2023,12,09,07,09,20.90
2023,12,09,07,10,17.70
2023,12,09,07,11,16.10
2023,12,09,07,12,14.50
2023,12,09,07,13,14.50
2023,12,09,07,14,14.50
2023,12,09,07,15,12.90
2023,12,09,07,16,14.50
2023,12,09,07,17,16.10
2023,12,09,07,18,17.70
2023,12,09,07,19,17.70
2023,12,09,07,20,17.70
2023,12,09,07,21,22.50
2023,12,09,07,22,20.90
2023,12,09,07,23,19.30
2023,12,09,07,24,22.50
2023,12,09,07,25,20.90
2023,12,09,07,26,17.70
2023,12,09,07,27,27.40
2023,12,09,07,28,27.40
2023,12,09,07,29,22.50
2023,12,09,07,30,20.90
2023,12,09,07,31,22.50
2023,12,09,07,32,20.90
2023,12,09,07,33,22.50
2023,12,09,07,34,25.70
2023,12,09,07,35,25.70
2023,12,09,07,36,27.40
2023,12,09,07,37,27.40
2023,12,09,07,38,25.70
2023,12,09,07,39,25.70
2023,12,09,07,40,25.70
2023,12,09,07,41,24.20
2023,12,09,07,42,27.40
2023,12,09,07,43,24.20
2023,12,09,07,44,24.20
2023,12,09,07,45,25.70
2023,12,09,07,46,27.40
2023,12,09,07,47,24.20
2023,12,09,07,48,24.20
2023,12,09,07,49,20.90
2023,12,09,07,50,22.50
2023,12,09,07,51,24.20
2023,12,09,07,52,22.50
2023,12,09,07,53,20.90
2023,12,09,07,54,24.20
2023,12,09,07,55,24.20
2023,12,09,07,56,22.50
2023,12,09,07,57,25.70
2023,12,09,07,58,22.50
2023,12,09,07,59,20.90
2023,12,09,08,00,22.50
2023,12,09,08,01,22.50
2023,12,09,08,02,22.50
2023,12,09,08,03,20.90
2023,12,09,08,04,24.20
2023,12,09,08,05,22.50
2023,12,09,08,06,20.90
2023,12,09,08,07,20.90
2023,12,09,08,08,22.50
2023,12,09,08,09,20.90
2023,12,09,08,10,24.20
2023,12,09,08,11,22.50
2023,12,09,08,12,20.90
2023,12,09,08,13,19.30
2023,12,09,08,14,22.50
2023,12,09,08,15,22.50
2023,12,09,08,16,22.50
2023,12,09,08,17,22.50
2023,12,09,08,18,20.90
2023,12,09,08,19,20.90
2023,12,09,08,20,20.90
2023,12,09,08,21,20.90
2023,12,09,08,22,20.90
2023,12,09,08,23,19.30
2023,12,09,08,24,20.90
2023,12,09,08,25,19.30
2023,12,09,08,26,22.50
2023,12,09,08,27,19.30
2023,12,09,08,28,19.30
2023,12,09,08,29,22.50
2023,12,09,08,30,19.30
2023,12,09,08,31,24.20
2023,12,09,08,32,20.90
2023,12,09,08,33,19.30
2023,12,09,08,34,22.50
2023,12,09,08,35,19.30
2023,12,09,08,36,20.90
2023,12,09,08,37,19.30
2023,12,09,08,38,22.50
2023,12,09,08,39,22.50
2023,12,09,08,40,22.50
2023,12,09,08,41,22.50
2023,12,09,08,42,17.70
2023,12,09,08,43,17.70
2023,12,09,08,44,14.50
2023,12,09,08,45,14.50
2023,12,09,08,46,16.10
2023,12,09,08,47,16.10
2023,12,09,08,48,22.50
2023,12,09,08,49,20.90
2023,12,09,08,50,20.90
2023,12,09,08,51,20.90
2023,12,09,08,52,17.70
2023,12,09,08,53,17.70
2023,12,09,08,54,19.30
2023,12,09,08,55,20.90
2023,12,09,08,56,22.50
2023,12,09,08,57,20.90
2023,12,09,08,58,20.90
2023,12,09,08,59,19.30
2023,12,09,09,00,14.50
2023,12,09,09,01,16.10
2023,12,09,09,02,17.70
2023,12,09,09,03,29.00
2023,12,09,09,04,33.80
2023,12,09,09,05,25.70
2023,12,09,09,06,22.50
2023,12,09,09,07,25.70
2023,12,09,09,08,25.70
2023,12,09,09,09,24.20
2023,12,09,09,10,29.00
2023,12,09,09,11,24.20
2023,12,09,09,12,22.50
2023,12,09,09,13,25.70
2023,12,09,09,14,35.40
2023,12,09,09,15,32.20
2023,12,09,09,16,30.60
2023,12,09,09,17,30.60
2023,12,09,09,18,27.40
2023,12,09,09,19,33.80
2023,12,09,09,20,35.40
2023,12,09,09,21,33.80
2023,12,09,09,22,30.60
2023,12,09,09,23,43.50
2023,12,09,09,24,41.80
2023,12,09,09,25,40.20
2023,12,09,09,26,43.50
2023,12,09,09,27,40.20
2023,12,09,09,28,40.20
2023,12,09,09,29,41.80
2023,12,09,09,30,37.00
2023,12,09,09,31,29.00
2023,12,09,09,32,30.60
2023,12,09,09,33,37.00
2023,12,09,09,34,27.40
2023,12,09,09,35,32.20
2023,12,09,09,36,32.20
2023,12,09,09,37,33.80
2023,12,09,09,38,38.60
2023,12,09,09,39,40.20
2023,12,09,09,40,41.80
2023,12,09,09,41,35.40
2023,12,09,09,42,35.40
2023,12,09,09,43,37.00
2023,12,09,09,44,40.20
2023,12,09,09,45,45.10
2023,12,09,09,46,37.00
2023,12,09,09,47,30.60
2023,12,09,09,48,33.80
2023,12,09,09,49,41.80
2023,12,09,09,50,37.00
2023,12,09,09,51,38.60
2023,12,09,09,52,35.40
2023,12,09,09,53,29.00
2023,12,09,09,54,33.80
2023,12,09,09,55,30.60
2023,12,09,09,56,35.40
2023,12,09,09,57,33.80
2023,12,09,09,58,45.10
2023,12,09,09,59,37.00
2023,12,09,10,00,40.20
2023,12,09,10,01,29.00
2023,12,09,10,02,29.00
2023,12,09,10,03,37.00
2023,12,09,10,04,49.90
2023,12,09,10,05,35.40
2023,12,09,10,06,30.60
2023,12,09,10,07,41.80
2023,12,09,10,08,35.40
2023,12,09,10,09,40.20
2023,12,09,10,10,43.50
2023,12,09,10,11,46.70
2023,12,09,10,12,49.90
2023,12,09,10,13,61.20
2023,12,09,10,14,56.30
2023,12,09,10,15,53.10
2023,12,09,10,16,43.50
2023,12,09,10,17,46.70
2023,12,09,10,18,49.90
2023,12,09,10,19,46.70
2023,12,09,10,20,46.70
2023,12,09,10,21,38.60
2023,12,09,10,22,40.20
2023,12,09,10,23,45.10
2023,12,09,10,24,40.20
2023,12,09,10,25,32.20
2023,12,09,10,26,38.60
2023,12,09,10,27,40.20
2023,12,09,10,28,40.20
2023,12,09,10,29,32.20
2023,12,09,10,30,37.00
2023,12,09,10,31,40.20
2023,12,09,10,32,38.60
2023,12,09,10,33,37.00
2023,12,09,10,34,37.00
2023,12,09,10,35,41.80
2023,12,09,10,36,48.30
2023,12,09,10,37,49.90
2023,12,09,10,38,37.00
2023,12,09,10,39,38.60
2023,12,09,10,40,33.80
2023,12,09,10,41,40.20
2023,12,09,10,42,40.20
2023,12,09,10,43,41.80
2023,12,09,10,44,40.20
2023,12,09,10,45,38.60
2023,12,09,10,46,38.60
2023,12,09,10,47,41.80
2023,12,09,10,48,43.50
2023,12,09,10,49,41.80
2023,12,09,10,50,41.80
2023,12,09,10,51,40.20
2023,12,09,10,52,40.20
2023,12,09,10,53,43.50
2023,12,09,10,54,46.70
2023,12,09,10,55,46.70
2023,12,09,10,56,38.60
2023,12,09,10,57,49.90
2023,12,09,10,58,45.10
2023,12,09,10,59,40.20
2023,12,09,11,00,48.30
2023,12,09,11,01,46.70
2023,12,09,11,02,49.90
2023,12,09,11,03,48.30
2023,12,09,11,04,51.50
2023,12,09,11,05,41.80
2023,12,09,11,06,49.90
2023,12,09,11,07,51.50
2023,12,09,11,08,57.90
2023,12,09,11,09,51.50
2023,12,09,11,10,45.10
2023,12,09,11,11,45.10
2023,12,09,11,12,49.90
2023,12,09,11,13,56.30
2023,12,09,11,14,53.10
2023,12,09,11,15,49.90
2023,12,09,11,16,49.90
2023,12,09,11,17,45.10
2023,12,09,11,18,45.10
2023,12,09,11,19,38.60
2023,12,09,11,20,40.20
2023,12,09,11,21,43.50
2023,12,09,11,22,48.30
2023,12,09,11,23,45.10
2023,12,09,11,24,46.70
2023,12,09,11,25,38.60
2023,12,09,11,26,40.20
2023,12,09,11,27,45.10
2023,12,09,11,28,37.00
2023,12,09,11,29,38.60
2023,12,09,11,30,53.10
2023,12,09,11,31,48.30
2023,12,09,11,32,48.30
2023,12,09,11,33,48.30
2023,12,09,11,34,49.90
2023,12,09,11,35,46.70
2023,12,09,11,36,40.20
2023,12,09,11,37,45.10
2023,12,09,11,38,53.10
2023,12,09,11,39,51.50
2023,12,09,11,40,45.10
2023,12,09,11,41,54.70
2023,12,09,11,42,61.20
2023,12,09,11,43,51.50
2023,12,09,11,44,45.10
2023,12,09,11,45,45.10
2023,12,09,11,46,54.70
2023,12,09,11,47,59.50
2023,12,09,11,48,56.30
2023,12,09,11,49,61.20
2023,12,09,11,50,46.70
2023,12,09,11,51,54.70
2023,12,09,11,52,56.30
2023,12,09,11,53,56.30
2023,12,09,11,54,59.50
2023,12,09,11,55,51.50
2023,12,09,11,56,48.30
2023,12,09,11,57,46.70
2023,12,09,11,58,43.50
2023,12,09,11,59,53.10
2023,12,09,12,00,40.20
2023,12,09,12,01,51.50
2023,12,09,12,02,48.30
2023,12,09,12,03,53.10
2023,12,09,12,04,46.70
2023,12,09,12,05,53.10
2023,12,09,12,06,46.70
2023,12,09,12,07,46.70
2023,12,09,12,08,57.90
2023,12,09,12,09,54.70
2023,12,09,12,10,51.50
2023,12,09,12,11,48.30
2023,12,09,12,12,43.50
2023,12,09,12,13,56.30
2023,12,09,12,14,56.30
2023,12,09,12,15,54.70
2023,12,09,12,16,49.90
2023,12,09,12,17,54.70
2023,12,09,12,18,46.70
2023,12,09,12,19,51.50
2023,12,09,12,20,54.70
2023,12,09,12,21,61.20
2023,12,09,12,22,48.30
2023,12,09,12,23,61.20
2023,12,09,12,24,69.20
2023,12,09,12,25,43.50
2023,12,09,12,26,41.80
2023,12,09,12,27,43.50
2023,12,09,12,28,57.90
2023,12,09,12,29,54.70
2023,12,09,12,30,62.70
2023,12,09,12,31,54.70
2023,12,09,12,32,54.70
2023,12,09,12,33,51.50
2023,12,09,12,34,74.00
2023,12,09,12,35,59.50
2023,12,09,12,36,54.70
2023,12,09,12,37,56.30
2023,12,09,12,38,48.30
2023,12,09,12,39,49.90
2023,12,09,12,40,51.50
2023,12,09,12,41,48.30
2023,12,09,12,42,51.50
2023,12,09,12,43,59.50
2023,12,09,12,44,45.10
2023,12,09,12,45,62.70
2023,12,09,12,46,49.90
2023,12,09,12,47,46.70
2023,12,09,12,48,62.70
2023,12,09,12,49,57.90
2023,12,09,12,50,56.30
2023,12,09,12,51,51.50
2023,12,09,12,52,46.70
2023,12,09,12,53,53.10
2023,12,09,12,54,48.30
2023,12,09,12,55,66.00
2023,12,09,12,56,61.20
2023,12,09,12,57,56.30
2023,12,09,12,58,45.10
2023,12,09,12,59,46.70
2023,12,09,13,00,45.10
2023,12,09,13,01,46.70
2023,12,09,13,02,53.10
2023,12,09,13,03,48.30
2023,12,09,13,04,57.90
2023,12,09,13,05,43.50
2023,12,09,13,06,51.50
2023,12,09,13,07,48.30
2023,12,09,13,08,51.50
2023,12,09,13,09,46.70
2023,12,09,13,10,54.70
2023,12,09,13,11,51.50
2023,12,09,13,12,51.50
2023,12,09,13,13,51.50
2023,12,09,13,14,54.70
2023,12,09,13,15,51.50
2023,12,09,13,16,49.90
2023,12,09,13,17,48.30
2023,12,09,13,18,54.70
2023,12,09,13,19,53.10
2023,12,09,13,20,45.10
2023,12,09,13,21,45.10
2023,12,09,13,22,46.70
2023,12,09,13,23,57.90
2023,12,09,13,24,49.90
2023,12,09,13,25,61.20
2023,12,09,13,26,51.50
2023,12,09,13,27,48.30
2023,12,09,13,28,59.50
2023,12,09,13,29,54.70
2023,12,09,13,30,53.10
2023,12,09,13,31,49.90
2023,12,09,13,32,54.70
2023,12,09,13,33,57.90
2023,12,09,13,34,45.10
2023,12,09,13,35,48.30
2023,12,09,13,36,56.30
2023,12,09,13,37,59.50
2023,12,09,13,38,49.90
2023,12,09,13,39,40.20
2023,12,09,13,40,40.20
2023,12,09,13,41,38.60
2023,12,09,13,42,40.20
2023,12,09,13,43,51.50
2023,12,09,13,44,38.60
2023,12,09,13,45,51.50
2023,12,09,13,46,48.30
2023,12,09,13,47,54.70
2023,12,09,13,48,43.50
2023,12,09,13,49,53.10
2023,12,09,13,50,48.30
2023,12,09,13,51,46.70
2023,12,09,13,52,46.70
2023,12,09,13,53,49.90
2023,12,09,13,54,45.10
2023,12,09,13,55,43.50
2023,12,09,13,56,46.70
2023,12,09,13,57,43.50
2023,12,09,13,58,56.30
2023,12,09,13,59,43.50
2023,12,09,14,00,57.90
2023,12,09,14,01,54.70
2023,12,09,14,02,57.90
2023,12,09,14,03,40.20
2023,12,09,14,04,48.30
2023,12,09,14,05,49.90
2023,12,09,14,06,40.20
2023,12,09,14,07,33.80
2023,12,09,14,08,43.50
2023,12,09,14,09,37.00
2023,12,09,14,10,40.20
2023,12,09,14,11,43.50
2023,12,09,14,12,40.20
2023,12,09,14,13,37.00
2023,12,09,14,14,37.00
2023,12,09,14,15,46.70
2023,12,09,14,16,59.50
2023,12,09,14,17,46.70
2023,12,09,14,18,45.10
2023,12,09,14,19,45.10
2023,12,09,14,20,46.70
2023,12,09,14,21,33.80
2023,12,09,14,22,43.50
2023,12,09,14,23,48.30
2023,12,09,14,24,43.50
2023,12,09,14,25,43.50
2023,12,09,14,26,41.80
2023,12,09,14,27,38.60
2023,12,09,14,28,45.10
2023,12,09,14,29,49.90
2023,12,09,14,30,38.60
2023,12,09,14,31,35.40
2023,12,09,14,32,37.00
2023,12,09,14,33,37.00
2023,12,09,14,34,30.60
2023,12,09,14,35,38.60
2023,12,09,14,36,40.20
2023,12,09,14,37,35.40
2023,12,09,14,38,35.40
2023,12,09,14,39,32.20
2023,12,09,14,40,35.40
2023,12,09,14,41,33.80
2023,12,09,14,42,35.40
2023,12,09,14,43,43.50
2023,12,09,14,44,35.40
2023,12,09,14,45,32.20
2023,12,09,14,46,35.40
2023,12,09,14,47,48.30
2023,12,09,14,48,37.00
2023,12,09,14,49,38.60
2023,12,09,14,50,35.40
2023,12,09,14,51,37.00
2023,12,09,14,52,33.80
2023,12,09,14,53,35.40
2023,12,09,14,54,25.70
2023,12,09,14,55,30.60
2023,12,09,14,56,33.80
2023,12,09,14,57,30.60
2023,12,09,14,58,29.00
2023,12,09,14,59,30.60
2023,12,09,15,00,35.40
2023,12,09,15,01,29.00
2023,12,09,15,02,32.20
2023,12,09,15,03,41.80
2023,12,09,15,04,40.20
2023,12,09,15,05,38.60
2023,12,09,15,06,33.80
2023,12,09,15,07,32.20
2023,12,09,15,08,43.50
2023,12,09,15,09,40.20
2023,12,09,15,10,35.40
2023,12,09,15,11,37.00
2023,12,09,15,12,32.20
2023,12,09,15,13,33.80
2023,12,09,15,14,37.00
2023,12,09,15,15,32.20
2023,12,09,15,16,25.70
2023,12,09,15,17,32.20
2023,12,09,15,18,30.60
2023,12,09,15,19,29.00
2023,12,09,15,20,43.50
2023,12,09,15,21,40.20
2023,12,09,15,22,32.20
2023,12,09,15,23,37.00
2023,12,09,15,24,38.60
2023,12,09,15,25,37.00
2023,12,09,15,26,30.60
2023,12,09,15,27,29.00
2023,12,09,15,28,33.80
2023,12,09,15,29,35.40
2023,12,09,15,30,33.80
2023,12,09,15,31,33.80
2023,12,09,15,32,24.20
2023,12,09,15,33,29.00
2023,12,09,15,34,30.60
2023,12,09,15,35,27.40
2023,12,09,15,36,20.90
2023,12,09,15,37,25.70
2023,12,09,15,38,33.80
2023,12,09,15,39,32.20
2023,12,09,15,40,27.40
2023,12,09,15,41,27.40
2023,12,09,15,42,33.80
2023,12,09,15,43,29.00
2023,12,09,15,44,27.40
2023,12,09,15,45,25.70
2023,12,09,15,46,25.70
2023,12,09,15,47,25.70
2023,12,09,15,48,30.60
2023,12,09,15,49,33.80
2023,12,09,15,50,29.00
2023,12,09,15,51,24.20
2023,12,09,15,52,27.40
2023,12,09,15,53,25.70
2023,12,09,15,54,27.40
2023,12,09,15,55,29.00
2023,12,09,15,56,33.80
2023,12,09,15,57,32.20
2023,12,09,15,58,27.40
2023,12,09,15,59,24.20
2023,12,09,16,00,29.00
2023,12,09,16,01,27.40
2023,12,09,16,02,25.70
2023,12,09,16,03,25.70
2023,12,09,16,04,22.50
2023,12,09,16,05,25.70
2023,12,09,16,06,27.40
2023,12,09,16,07,20.90
2023,12,09,16,08,27.40
2023,12,09,16,09,25.70
2023,12,09,16,10,24.20
2023,12,09,16,11,25.70
2023,12,09,16,12,25.70
2023,12,09,16,13,17.70
2023,12,09,16,14,19.30
2023,12,09,16,15,17.70
2023,12,09,16,16,17.70
2023,12,09,16,17,19.30
2023,12,09,16,18,17.70
2023,12,09,16,19,17.70
2023,12,09,16,20,16.10
2023,12,09,16,21,14.50
2023,12,09,16,22,14.50
2023,12,09,16,23,12.90
2023,12,09,16,24,17.70
2023,12,09,16,25,14.50
2023,12,09,16,26,17.70
2023,12,09,16,27,16.10
2023,12,09,16,28,11.30
2023,12,09,16,29,11.30
2023,12,09,16,30,8.10
2023,12,09,16,31,8.10
2023,12,09,16,32,12.90
2023,12,09,16,33,11.30
2023,12,09,16,34,11.30
2023,12,09,16,35,12.90
2023,12,09,16,36,11.30
2023,12,09,16,37,9.60
2023,12,09,16,38,12.90
2023,12,09,16,39,12.90
2023,12,09,16,40,8.10
2023,12,09,16,41,6.40
2023,12,09,16,42,6.40
2023,12,09,16,43,4.80
2023,12,09,16,44,12.90
2023,12,09,16,45,8.10
2023,12,09,16,46,6.40
2023,12,09,16,47,4.80
2023,12,09,16,48,6.40
2023,12,09,16,49,4.80
2023,12,09,16,50,6.40
2023,12,09,16,51,9.60
2023,12,09,16,52,9.60
2023,12,09,16,53,8.10
2023,12,09,16,54,9.60
2023,12,09,16,55,12.90
2023,12,09,16,56,12.90
2023,12,09,16,57,12.90
2023,12,09,16,58,6.40
2023,12,09,16,59,4.80
2023,12,09,17,00,9.60
2023,12,09,17,01,11.30
2023,12,09,17,02,12.90
2023,12,09,17,03,14.50
2023,12,09,17,04,14.50
2023,12,09,17,05,12.90
2023,12,09,17,06,9.60
2023,12,09,17,07,4.80
2023,12,09,17,08,6.40
2023,12,09,17,09,6.40
2023,12,09,17,10,6.40
2023,12,09,17,11,11.30
2023,12,09,17,12,11.30
2023,12,09,17,13,6.40
2023,12,09,17,14,6.40
2023,12,09,17,15,4.80
2023,12,09,17,16,3.20
2023,12,09,17,17,6.40
2023,12,09,17,18,11.30
2023,12,09,17,19,6.40
2023,12,09,17,20,6.40